Starlink 34315

operational
NORAD ID: 64266 Int'l Des: 2025-120 Owner: SPXS Country: US Constellation: starlink
LEOCIRCULAR

关于 Starlink 34315

正在加载描述...

实时位置

正在加载3D地球...

即将过境

高度历史

Altitude vs Time

uPlot chart will show altitude changes over time

两行轨道根数

1 64266U 25120L 25352.56996451 .00020985 00000-0 71863-3 0 9998
2 64266 53.1567 133.6787 0001024 71.5789 288.5323 15.30201282 31438
Epoch: Dec 18, 2025 • Age: 31 hours

当前状态

高度 475.6 km
速度 7.63 km/s
星下点 25.99°N, 102.57°E
发射日期 Jun 4, 2025
运行时间 0.5 years
类型 internet

技术详情

分类 Payload
质量 575.00 kg
干质量 530.00 kg
总质量 575.00 kg
长度 0.30 m
直径 4.10 m
跨度 29.00 m
形状 Box + pan
制造商 SPXS
平台类型 Starlink V2MO
阶段状态 In Orbit
所有者/国家 SPXS/US

大型星座

Loading constellations...